Weather History for KENL - September, 2013

Change the Weather History Date:

Thursday, September 26, 2013

  Actual Average (KSLO) Record (KSLO)
Temperature  
Mean Temperature 72 °F -  
Max Temperature 86 °F 76 °F 90 °F (1986)
Min Temperature 59 °F 52 °F 35 °F (2001)
Cooling Degree Days 7    
Growing Degree Days 22 (Base 50)    
Moisture  
Dew Point 59 °F    
Average Humidity 70    
Maximum Humidity 94    
Minimum Humidity 36    
Precipitation  
Precipitation 0.00 in - - ()
Sea Level Pressure  
Sea Level Pressure 29.99 in    
Wind  
Wind Speed 2 mph (East)    
Max Wind Speed 7 mph    
Max Gust Speed -    
Visibility 8 miles    
Events Fog    
Averages and records for this station are not official NWS values.
T = Trace of Precipitation, MM = Missing Value Source: NWS Daily Summary

Daily Weather History Graph

Daily Weather History Graph

Search for Another Location

Airport or City:

Trip Planner

Search our weather history database for the weather conditions in past years. The results will help you decide how hot, cold, wet, or windy it might be!

Date:

Astronomy

Sep. 26, 2013 Rise Set
Actual Time 6:47 AM CDT 6:46 PM CDT
Civil Twilight 6:21 AM CDT 7:13 PM CDT
Nautical Twilight 5:50 AM CDT 7:43 PM CDT
Astronomical Twilight 5:19 AM CDT 8:14 PM CDT
Moon 11:48 PM CDT (9/26) 1:36 PM CDT (9/26)
Length of Visible Light 12h 51m
Length of Day
11h 58m
Waning Gibbous, 54% of the Moon is Illuminated
Sep 26
Waning Gibbous
Sep 26
Last Quarter
Oct 4
New
Oct 11
First Quarter
Oct 18
Full

Hourly Weather History & Observations

Time (CDT) Temp. Heat Index Dew Point Humidity Pressure Visibility Wind Dir Wind Speed Gust Speed Precip Events Conditions
12:15 AM 62.1 °F - 59.9 °F 93% 29.89 in 4.0 mi Calm Calm - N/A   Mist
12:35 AM 63.0 °F - 60.8 °F 93% 29.90 in 5.0 mi Calm Calm - N/A   Mist
12:55 AM 62.2 °F - 59.7 °F 91% 29.90 in 5.0 mi Calm Calm - N/A   Mist
1:15 AM 61.7 °F - 59.4 °F 92% 29.90 in 4.0 mi Calm Calm - N/A   Mist
1:35 AM 61.2 °F - 59.0 °F 93% 29.90 in 5.0 mi Calm Calm - N/A   Mist
1:55 AM 61.5 °F - 59.2 °F 92% 29.91 in 5.0 mi Calm Calm - N/A   Mist
2:15 AM 62.4 °F - 60.1 °F 92% 29.91 in 4.0 mi Calm Calm - N/A   Mist
2:35 AM 60.8 °F - 58.6 °F 93% 29.92 in 2.5 mi Calm Calm - N/A   Mist
2:55 AM 60.3 °F - 58.1 °F 93% 29.92 in 5.0 mi Calm Calm - N/A   Mist
3:15 AM 59.9 °F - 57.9 °F 93% 29.92 in 4.0 mi Calm Calm - N/A   Mist
3:35 AM 60.3 °F - 58.1 °F 93% 29.92 in 3.0 mi Calm Calm - N/A   Mist
3:55 AM 61.7 °F - 59.5 °F 93% 29.93 in 3.0 mi Calm Calm - N/A   Mist
4:15 AM 59.9 °F - 57.9 °F 93% 29.93 in 3.0 mi Calm Calm - N/A   Mist
4:35 AM 60.1 °F - 58.1 °F 93% 29.94 in 0.2 mi Calm Calm - N/A Fog Fog
4:55 AM 59.9 °F - 58.1 °F 94% 29.95 in 3.0 mi Calm Calm - N/A   Mist
5:15 AM 62.1 °F - 60.3 °F 94% 29.95 in 2.5 mi Calm Calm - N/A   Mist
5:35 AM 61.2 °F - 59.2 °F 93% 29.95 in 2.5 mi ENE 3.5 mph - N/A   Mist
5:55 AM 61.7 °F - 59.9 °F 94% 29.96 in 2.5 mi Calm Calm - N/A   Mist
6:15 AM 62.6 °F - 60.8 °F 94% 29.97 in 5.0 mi Calm Calm - N/A   Mist
6:35 AM 62.2 °F - 60.3 °F 93% 29.97 in 4.0 mi ENE 3.5 mph - N/A   Mist
6:55 AM 62.4 °F - 60.3 °F 93% 29.98 in 4.0 mi Calm Calm - N/A   Mist
7:15 AM 62.1 °F - 59.9 °F 93% 29.99 in 4.0 mi Calm Calm - N/A   Mist
7:35 AM 62.6 °F - 60.1 °F 91% 30.00 in 4.0 mi Calm Calm - N/A   Mist
7:55 AM 64.6 °F - 62.1 °F 92% 30.00 in 5.0 mi Calm Calm - N/A   Mist
8:15 AM 66.2 °F - 62.8 °F 89% 30.00 in 7.0 mi East 3.5 mph - N/A   Unknown
8:35 AM 68.4 °F - 63.3 °F 84% 30.01 in 10.0 mi East 3.5 mph - N/A   Unknown
8:55 AM 70.3 °F - 64.0 °F 80% 30.01 in 10.0 mi East 4.6 mph - N/A   Unknown
9:15 AM 72.5 °F - 65.3 °F 78% 30.02 in 10.0 mi East 3.5 mph - N/A   Unknown
9:35 AM 74.7 °F - 65.3 °F 73% 30.02 in 10.0 mi Calm Calm - N/A   Unknown
9:55 AM 77.0 °F - 65.3 °F 67% 30.02 in 10.0 mi East 4.6 mph - N/A   Unknown
10:15 AM 77.9 °F - 65.1 °F 65% 30.02 in 10.0 mi SE 3.5 mph - N/A   Unknown
10:35 AM 79.7 °F - 64.2 °F 59% 30.02 in 10.0 mi East 4.6 mph - N/A   Unknown
10:55 AM 80.6 °F 81.8 °F 62.8 °F 54% 30.03 in 10.0 mi East 4.6 mph - N/A   Unknown
11:15 AM 80.8 °F 81.9 °F 62.2 °F 53% 30.03 in 10.0 mi East 4.6 mph - N/A   Unknown
11:35 AM 82.0 °F 82.8 °F 61.9 °F 50% 30.02 in 10.0 mi East 3.5 mph - N/A   Unknown
11:55 AM 82.6 °F 82.8 °F 59.7 °F 46% 30.02 in 10.0 mi NE 5.8 mph - N/A   Unknown
12:15 PM 84.7 °F 84.0 °F 58.1 °F 40% 30.02 in 10.0 mi NE 5.8 mph - N/A   Unknown
12:35 PM 84.0 °F 83.5 °F 57.9 °F 41% 30.02 in 10.0 mi East 4.6 mph - N/A   Unknown
12:55 PM 84.0 °F 82.9 °F 55.0 °F 37% 30.01 in 10.0 mi SSE 5.8 mph - N/A   Unknown
1:15 PM 85.1 °F 84.3 °F 57.6 °F 39% 30.01 in 10.0 mi ESE 5.8 mph - N/A   Unknown
1:35 PM 84.6 °F 83.5 °F 56.1 °F 38% 30.01 in 10.0 mi SE 4.6 mph - N/A   Unknown
1:55 PM 85.5 °F 84.1 °F 55.6 °F 36% 30.00 in 10.0 mi East 6.9 mph - N/A   Unknown
2:15 PM 85.5 °F 84.3 °F 56.3 °F 37% 30.00 in 10.0 mi SE 6.9 mph - N/A   Unknown
2:35 PM 85.5 °F 84.5 °F 57.2 °F 38% 30.00 in 10.0 mi ENE 6.9 mph - N/A   Unknown
2:55 PM 84.4 °F 83.5 °F 56.7 °F 39% 29.99 in 10.0 mi East 5.8 mph - N/A   Unknown
3:15 PM 85.5 °F 84.1 °F 55.9 °F 36% 29.99 in 10.0 mi East 4.6 mph - N/A   Unknown
3:35 PM 85.1 °F 83.9 °F 55.9 °F 37% 29.99 in 10.0 mi East 5.8 mph - N/A   Unknown
3:55 PM 85.3 °F 84.1 °F 56.3 °F 37% 29.98 in 10.0 mi East 3.5 mph - N/A   Unknown
4:15 PM 85.8 °F 84.5 °F 55.8 °F 36% 29.98 in 10.0 mi ESE 5.8 mph - N/A   Unknown
4:35 PM 85.1 °F 83.8 °F 55.4 °F 36% 29.99 in 10.0 mi East 4.6 mph - N/A   Unknown
4:55 PM 85.3 °F 84.1 °F 55.9 °F 37% 29.99 in 10.0 mi East 4.6 mph - N/A   Unknown
5:15 PM 84.9 °F 83.6 °F 54.9 °F 36% 29.99 in 10.0 mi ESE 4.6 mph - N/A   Unknown
5:35 PM 84.4 °F 83.2 °F 55.4 °F 37% 29.99 in 10.0 mi ENE 3.5 mph - N/A   Unknown
5:55 PM 83.3 °F 82.8 °F 57.4 °F 41% 29.99 in 10.0 mi East 3.5 mph - N/A   Unknown
6:15 PM 81.7 °F 81.8 °F 58.5 °F 45% 30.00 in 10.0 mi Calm Calm - N/A   Unknown
6:35 PM 79.0 °F - 60.1 °F 52% 30.00 in 10.0 mi Calm Calm - N/A   Unknown
6:55 PM 75.6 °F - 60.8 °F 60% 30.00 in 10.0 mi East 3.5 mph - N/A   Unknown
7:15 PM 73.2 °F - 61.2 °F 66% 30.00 in 10.0 mi East 3.5 mph - N/A   Unknown
7:35 PM 68.2 °F - 61.7 °F 80% 30.00 in 10.0 mi East 3.5 mph - N/A   Unknown
7:55 PM 68.0 °F - 62.1 °F 81% 30.01 in 10.0 mi Calm Calm - N/A   Unknown
8:15 PM 66.9 °F - 61.5 °F 83% 30.01 in 10.0 mi East 3.5 mph - N/A   Unknown
8:35 PM 67.1 °F - 61.3 °F 82% 30.02 in 10.0 mi East 3.5 mph - N/A   Unknown
8:55 PM 68.5 °F - 61.0 °F 77% 30.03 in 10.0 mi East 3.5 mph - N/A   Unknown
9:15 PM 66.4 °F - 60.4 °F 81% 30.03 in 10.0 mi Calm Calm - N/A   Unknown
9:35 PM 67.8 °F - 59.7 °F 75% 30.03 in 10.0 mi East 3.5 mph - N/A   Unknown
9:55 PM 68.5 °F - 58.6 °F 71% 30.03 in 10.0 mi East 3.5 mph - N/A   Unknown
10:15 PM 67.6 °F - 58.1 °F 71% 30.03 in 10.0 mi Calm Calm - N/A   Unknown
10:35 PM 66.7 °F - 57.7 °F 73% 30.03 in 10.0 mi Calm Calm - N/A   Unknown
10:55 PM 64.2 °F - 57.6 °F 79% 30.04 in 10.0 mi Calm Calm - N/A   Unknown
11:15 PM 61.0 °F - 57.0 °F 87% 30.04 in 10.0 mi Calm Calm - N/A   Unknown
11:35 PM 60.8 °F - 56.7 °F 86% 30.04 in 10.0 mi Calm Calm - N/A   Unknown
11:55 PM 59.4 °F - 55.9 °F 88% 30.05 in 10.0 mi Calm Calm - N/A   Unknown